Погода в Барселоне

Испания     41°23′13″N   2°10′12″E
темп.,
°C
ветер,
м/с
пор.,
м/с
влажн.,
%
обл.,
%
осадки,
мм/ч
давл.,
гПа
погр.,
м
20 мая, пт
пт2023:00+22в115890 0.0 1024123
02:00+21всв005661 0.0 102416
05:00+21с1152100 0.0 102413
08:00+22вюв004697 0.0 102535
11:00+25юв214177 0.0 1025405
14:00+27ююв333948 0.0 1024738
17:00+27ююв3439100 0.0 1023676
20:00+26ююз353799 0.0 1022497
21 мая, сб
сб2123:00+24ююз2241100 0.0 102332
02:00+22вюв115097 0.0 102313
05:00+21с115154 0.0 102211
08:00+22сз014445 0.0 102260
11:00+27ююз35325 0.0 1022691
14:00+30ююз572762 0.0 1020991
17:00+31юз782323 0.0 1018941
20:00+28ююз562854 0.0 1017427
22 мая, вс
вс2223:00+26зюз363294 0.0 1017244
02:00+24зюз2233100 0.0 101534
05:00+23зюз233499 0.0 101436
08:00+24з233199 0.0 101378
11:00+29юз462195 0.0 1013522
14:00+32ююз682222 0.0 1012891
17:00+31ююз57255 0.0 1010682
20:00+27ююз363391 0.0 1009404
23 мая, пн
пн2323:00+26з263786 0.0 1010386
02:00+24зюз1141100 0.0 100819
05:00+22в35455 0.0 1008206
08:00+21юв11614 0.0 1009206
11:00+25ю325098 0.0 1009756
14:00+24ююв445897 0.0 1009602
17:00+24ююв445828 0.0 1008723
20:00+23ююв226012 0.0 1008510
24 мая, вт
вт2423:00+22юз1266100 0.0 1009235
02:00+21юз2266100 0.0 1009234
05:00+21зюз126576 0.0 1009216
08:00+22зсз116243 0.0 1009274
11:00+24ююв3354100 0.0 10091150
14:00+24ю445863 0.0 10091115
17:00+22юв446597 0.0 1008655
20:00+21в4665100 0.0 1008613